Location: Morisset
(33.1080°S, 151.4871°E)
Time: 09:08:24
(UTC+00:00)

In-Cosmos 22 - Pass Details

Date: 29 October 2020
Orbit: 785 x 876 km, 81.2° (Epoch: 27 November)

Event Time Altitude Azimuth Distance (km) Brightness Sun altitude
Rises 16:18:59 0° 187° (S) 3,342 7.8 -29.4°
Reaches altitude 10° 16:21:24 10° 186° (S) 2,395 7.0 -29.0°
Enters shadow 16:26:40 80° 127° (SE) 811 4.0 -28.2°
